TimeCST,TemperatureF,Dew PointF,Humidity,Sea Level PressureIn,VisibilityMPH,Wind Direction,Wind SpeedMPH,Gust SpeedMPH,PrecipitationIn,Events,Conditions,WindDirDegrees,DateUTC
12:53 AM,32.0,23.0,69,30.62,10.0,NNE,10.4,-,N/A,,Clear,30,2005-01-17 06:53:00
1:53 AM,30.9,21.9,69,30.61,10.0,NE,9.2,-,N/A,,Clear,40,2005-01-17 07:53:00
2:53 AM,30.0,21.0,69,30.62,10.0,NNE,5.8,-,N/A,,Clear,20,2005-01-17 08:53:00
3:53 AM,28.9,21.0,72,30.63,10.0,NNE,5.8,-,N/A,,Clear,30,2005-01-17 09:53:00
4:53 AM,28.0,21.0,75,30.62,10.0,NNE,5.8,-,N/A,,Clear,20,2005-01-17 10:53:00
5:53 AM,28.0,19.9,72,30.66,10.0,NNE,6.9,-,N/A,,Clear,20,2005-01-17 11:53:00
6:53 AM,27.0,19.0,72,30.67,10.0,NNE,8.1,-,N/A,,Clear,20,2005-01-17 12:53:00
7:53 AM,27.0,19.0,72,30.69,10.0,North,6.9,-,N/A,,Clear,10,2005-01-17 13:53:00
8:53 AM,28.9,19.9,69,30.70,10.0,NE,8.1,-,N/A,,Clear,50,2005-01-17 14:53:00
9:53 AM,33.1,19.9,59,30.71,10.0,NNE,9.2,-,N/A,,Clear,20,2005-01-17 15:53:00
10:53 AM,36.0,19.9,52,30.70,10.0,North,6.9,-,N/A,,Clear,10,2005-01-17 16:53:00
11:53 AM,39.0,19.9,46,30.67,10.0,North,5.8,-,N/A,,Clear,360,2005-01-17 17:53:00
12:53 PM,43.0,18.0,37,30.63,10.0,NNE,8.1,-,N/A,,Clear,30,2005-01-17 18:53:00
1:53 PM,45.0,15.1,30,30.61,10.0,Variable,3.5,-,N/A,,Clear,0,2005-01-17 19:53:00
2:53 PM,48.0,16.0,28,30.59,10.0,Variable,3.5,-,N/A,,Clear,0,2005-01-17 20:53:00
3:53 PM,48.0,15.1,27,30.59,10.0,NNE,5.8,-,N/A,,Clear,30,2005-01-17 21:53:00
4:53 PM,46.9,16.0,29,30.60,10.0,NNE,5.8,-,N/A,,Clear,30,2005-01-17 22:53:00
5:53 PM,42.1,17.1,37,30.60,10.0,NNE,5.8,-,N/A,,Clear,30,2005-01-17 23:53:00
6:53 PM,39.9,18.0,41,30.61,10.0,NE,9.2,-,N/A,,Clear,40,2005-01-18 00:53:00
7:53 PM,37.9,19.0,47,30.63,10.0,NE,8.1,-,N/A,,Clear,40,2005-01-18 01:53:00
8:53 PM,35.1,19.9,54,30.64,10.0,NE,6.9,-,N/A,,Clear,40,2005-01-18 02:53:00
9:53 PM,34.0,21.0,59,30.66,10.0,NE,8.1,-,N/A,,Clear,40,2005-01-18 03:53:00
10:53 PM,33.1,21.0,61,30.67,10.0,NE,8.1,-,N/A,,Clear,50,2005-01-18 04:53:00
11:53 PM,32.0,19.9,61,30.66,10.0,ENE,6.9,-,N/A,,Clear,60,2005-01-18 05:53:00